Terminal Aerodrome Forecast
Issued by NWS

Home | Current Version | Previous Version | Text Only | Print | Product List | Glossary On
Versions: 1 2 3 4 5 6 7 8 9 10 11 12 13 14
000
FTAK31 PAJN 181120
TAFAGY
TAF
PAGY 181120Z 1812/1912 03003KT P6SM FEW015 SCT025 BKN060
      TEMPO 1812/1816 00000KT 6SM BR SCT015 BKN025 OVC060
     FM181700 03010KT P6SM FEW025 SCT060
     FM182100 03012G22KT P6SM FEW060
      AMD LTD TO CLD VIS AND WIND=

USA.gov is the U.S. government's official web portal to all federal, state and local government web resources and services.